Theta_e
315 312 308 308 310 313 315 316 315 314 313 312 315 322 326 328 331 329 325 326 324 323 328 330 332 334 331 328 327 323 321 321 321 323 322 321 321 321 322 322 322 323 322 319 320 323 320 318 319 320 318 321 319 317 319 319 322 329 331 327 324 328 336 331 323 330 333 329 328 325 323 327 326 322 323 330 328 328 335 332 327 331 329 330 334 329 331
315 313 309 307 309 313 315 316 317 316 315 315 319 323 326 328 329 328 326 326 325 325 329 335 345 345 334 327 327 324 322 321 321 322 323 323 323 322 322 321 321 322 322 320 320 322 321 318 317 319 319 319 317 317 320 320 321 325 326 326 326 326 330 332 333 338 338 337 339 333 327 327 325 322 323 326 326 330 331 328 332 332 326 331 336 329 331
315 314 311 308 308 311 314 316 317 317 317 318 320 324 326 328 329 328 327 326 325 326 330 336 343 343 335 330 330 328 324 321 321 323 322 323 323 323 323 320 321 324 323 318 319 324 325 321 317 319 320 318 316 318 320 320 321 322 322 325 326 326 333 341 343 337 332 334 336 331 326 327 325 324 325 324 327 332 329 328 333 330 324 331 336 330 330
316 315 312 308 308 311 313 316 317 318 318 318 320 322 324 327 329 329 327 325 324 324 325 328 332 336 334 330 327 329 328 321 320 323 323 323 322 323 323 321 324 328 324 321 321 321 324 325 321 318 319 319 317 317 320 320 320 323 324 324 329 334 335 342 346 338 335 339 338 331 329 327 323 323 324 323 324 327 328 329 328 326 328 329 327 330 329
316 315 313 309 308 310 312 315 317 317 319 319 319 320 320 324 331 330 326 324 325 325 323 324 327 330 330 328 327 330 328 322 321 321 322 322 322 323 324 324 328 329 327 328 325 320 324 328 325 321 319 318 317 316 320 322 321 324 322 320 337 346 332 329 338 334 334 340 334 327 327 325 323 323 323 325 326 327 329 328 323 326 331 324 320 329 329
316 315 314 310 308 310 312 314 316 317 318 318 319 319 321 325 329 327 324 325 327 326 324 324 326 327 327 327 330 332 328 324 323 322 320 320 323 326 326 326 330 330 332 334 329 325 327 327 326 327 324 319 319 318 319 322 320 321 321 320 335 345 329 322 327 324 326 333 327 324 327 325 324 326 325 327 328 326 325 323 326 335 335 324 319 325 324
315 315 315 311 308 310 312 313 315 316 317 318 317 319 321 325 329 328 325 324 324 324 324 323 324 329 332 331 331 332 330 325 322 322 323 322 324 327 327 327 330 330 336 340 333 327 329 326 322 327 327 322 323 323 322 323 320 320 325 321 324 334 329 325 329 324 322 325 323 324 326 323 324 325 324 327 328 327 326 323 328 334 330 325 326 325 323
316 315 315 312 308 310 313 314 314 316 316 316 318 320 321 325 331 331 330 330 328 324 324 325 328 332 333 333 331 329 330 329 323 321 326 325 324 325 327 328 328 328 336 339 330 327 336 335 322 324 331 326 322 325 325 324 321 322 328 324 322 328 326 328 336 330 321 324 324 323 326 327 326 324 324 327 326 325 326 324 326 328 324 325 329 324 322
316 315 315 313 309 310 315 316 314 315 316 316 320 323 326 329 331 330 334 338 334 326 323 328 333 334 331 334 335 328 329 331 324 320 324 324 324 326 328 329 328 329 334 330 322 322 332 335 323 322 330 324 318 322 321 322 326 326 326 325 326 330 327 331 340 330 322 329 326 321 331 335 328 323 322 326 327 324 323 324 327 327 324 325 326 323 322
316 315 315 314 310 309 314 318 316 315 317 321 325 327 329 330 328 330 335 336 331 326 326 329 335 334 331 334 335 328 325 326 324 324 323 320 321 324 323 323 326 330 329 323 319 317 319 322 318 317 322 318 315 319 318 321 328 330 330 328 329 333 330 329 336 331 327 331 329 328 338 336 326 326 325 324 327 325 321 322 325 326 328 330 327 323 323
316 315 315 315 311 309 312 319 320 318 320 326 328 328 328 326 327 333 337 337 331 324 324 332 337 334 328 326 329 327 325 322 323 328 325 319 322 323 320 321 326 329 324 318 317 316 315 318 316 315 318 316 316 318 317 318 320 324 330 330 330 337 336 329 331 330 323 327 332 332 332 328 329 335 333 328 329 328 323 320 322 325 328 330 328 323 322
316 315 315 315 313 309 309 316 321 321 322 326 326 326 326 323 326 334 336 340 340 330 325 331 332 327 324 323 324 326 324 322 322 325 323 321 323 323 321 321 324 326 320 315 316 316 316 317 317 318 317 315 315 316 315 317 318 317 322 328 332 338 335 328 330 327 323 331 334 326 324 330 336 336 330 328 331 332 328 322 321 324 324 324 325 322 320
315 315 315 315 314 311 308 311 318 320 321 324 323 323 324 321 325 334 335 340 346 338 331 331 327 323 324 323 322 322 321 322 322 322 322 323 322 322 322 321 322 322 318 316 317 317 320 325 327 324 321 322 323 319 316 318 320 317 318 322 329 334 331 329 331 327 325 330 329 324 326 331 331 328 323 322 324 329 330 322 320 323 322 321 324 321 316
314 315 315 315 314 313 309 307 313 318 320 322 321 321 321 320 324 329 330 337 343 335 329 330 328 325 325 322 321 322 321 320 321 321 321 321 320 321 321 320 320 319 317 317 318 318 324 334 337 332 330 331 328 323 321 319 318 320 320 317 323 332 334 332 329 324 326 328 325 328 330 324 324 328 323 318 319 325 330 326 320 321 318 317 322 321 316
313 314 315 315 314 315 311 307 309 314 318 321 320 319 320 320 322 324 324 331 339 335 329 329 329 325 323 322 321 325 326 324 322 321 320 320 319 320 319 319 320 319 316 318 321 324 330 335 329 323 323 326 325 323 324 320 317 320 320 316 318 323 328 333 329 324 331 336 329 328 329 327 331 334 326 320 318 318 324 327 322 319 316 314 318 321 317
311 314 315 315 314 315 313 309 307 309 313 318 319 318 319 320 320 321 324 328 334 333 328 326 326 323 322 322 322 324 328 328 327 326 322 320 319 318 319 319 319 319 317 317 323 329 333 329 322 319 323 327 325 321 319 320 320 319 318 321 324 324 328 338 335 322 326 334 330 326 329 330 334 334 325 319 317 316 322 327 326 321 317 315 317 317 315
309 312 314 315 314 314 314 312 308 308 310 313 317 317 318 320 319 320 325 331 332 330 326 325 326 324 323 324 324 323 324 325 326 327 328 324 319 318 320 318 317 319 317 321 332 335 330 325 321 321 325 328 325 321 320 321 322 322 322 325 329 330 331 334 331 324 325 327 325 324 327 327 330 334 326 316 317 321 324 328 331 325 317 316 318 317 315
309 310 313 314 315 314 314 313 311 311 310 310 313 314 315 319 320 320 325 331 330 327 325 325 326 325 324 326 325 323 323 322 322 325 327 323 318 319 319 317 319 321 318 325 338 337 327 325 325 323 325 329 327 325 323 321 323 328 329 326 326 329 329 327 329 330 326 323 322 324 328 328 327 328 323 315 316 322 326 330 333 324 316 316 318 317 316
309 309 311 313 314 314 314 313 312 313 314 313 313 313 314 318 319 321 325 328 325 324 325 326 326 325 325 326 326 325 325 323 322 327 328 324 320 319 319 317 319 320 319 325 335 332 326 328 329 325 328 332 331 328 324 322 325 327 327 327 326 327 324 323 327 327 325 328 329 326 327 328 322 319 318 315 319 327 330 330 324 318 317 318 317 316 317
309 309 309 311 313 314 314 314 313 313 315 316 316 314 312 315 319 322 325 325 322 322 324 324 326 325 325 326 326 327 327 325 323 326 329 326 321 319 321 323 321 319 321 327 329 326 326 331 329 326 327 329 329 328 328 329 330 324 322 327 330 328 324 323 326 327 327 329 329 325 328 329 321 317 319 319 323 329 327 321 318 318 319 318 316 317 317
310 309 309 310 312 313 313 313 314 313 313 314 315 314 312 315 320 323 324 324 323 322 321 322 324 325 325 326 325 324 326 326 324 323 323 322 320 322 328 328 324 322 325 329 328 324 324 330 330 328 327 327 327 326 327 331 330 322 319 325 329 327 325 327 330 329 327 328 331 333 334 329 320 318 321 322 323 323 319 318 319 319 317 317 318 317 316
310 310 309 309 310 312 313 313 314 315 313 311 311 312 312 315 321 324 324 322 321 320 320 320 321 322 322 322 323 323 323 324 325 323 322 322 321 325 328 326 324 323 324 327 331 328 326 330 330 328 328 328 326 326 326 328 329 324 320 325 329 327 324 326 329 326 324 330 337 334 325 321 319 319 319 320 319 319 318 319 318 316 317 318 318 317 316
310 310 309 309 309 311 312 312 313 315 314 312 311 310 311 315 321 324 323 322 321 320 320 320 320 321 321 320 321 322 322 323 324 324 324 324 325 326 326 324 325 325 322 324 329 326 325 328 326 325 328 326 324 328 327 324 326 327 323 323 324 323 321 323 326 324 322 324 326 322 319 320 321 319 318 319 319 319 319 318 317 317 318 318 317 317 317
310 310 310 309 309 309 311 312 312 314 315 314 312 311 311 315 320 322 321 320 321 320 320 320 320 321 322 321 320 320 321 322 323 323 324 325 325 327 328 325 325 324 322 322 323 321 322 324 322 324 328 327 326 332 330 324 325 327 328 328 326 321 320 323 325 326 327 326 322 319 320 321 320 318 319 319 319 319 318 317 317 318 317 317 318 318 316
310 310 310 310 309 309 310 311 311 313 314 315 314 313 312 315 319 322 320 319 319 319 319 319 320 321 321 320 320 320 320 320 321 322 324 324 324 326 327 326 325 324 322 322 321 320 321 321 322 327 329 323 324 329 329 328 328 325 328 336 332 322 320 324 326 326 326 324 320 319 319 320 320 321 320 318 318 319 318 318 318 317 317 318 318 317 317
310 309 310 310 309 309 310 310 311 312 313 315 315 314 314 314 318 321 321 319 318 318 317 318 320 320 319 319 319 320 320 320 321 321 322 322 323 323 324 324 323 323 323 321 321 321 320 318 321 327 328 324 324 326 326 327 325 321 324 330 328 320 319 322 325 327 327 323 320 319 320 320 319 319 319 319 318 318 318 318 319 318 318 318 317 317 317
311 310 309 309 310 309 309 310 311 311 312 314 315 315 315 314 316 319 320 319 318 317 317 318 321 320 317 318 319 320 319 319 321 322 323 322 322 322 323 323 323 322 322 322 322 320 318 317 318 321 322 323 323 322 321 319 319 321 326 325 320 317 320 322 326 332 334 329 322 321 324 323 320 318 319 318 318 318 318 318 318 318 317 317 317 317 317
312 311 309 309 310 310 309 310 310 310 311 313 315 315 316 315 315 316 318 318 319 320 319 318 319 318 316 317 318 318 318 319 322 323 324 324 323 323 323 322 322 322 322 321 321 318 317 317 318 317 318 320 322 322 321 318 318 325 331 327 318 316 321 327 333 335 332 327 321 320 322 322 319 318 319 318 318 319 318 317 317 317 317 317 317 317 317
313 312 310 309 309 309 310 310 310 310 311 313 314 315 316 315 314 315 316 316 317 318 317 316 316 315 315 316 316 315 316 319 321 323 323 323 322 322 323 322 321 321 321 321 320 318 317 316 316 316 318 320 321 323 323 321 320 324 326 322 319 319 320 322 325 325 323 321 319 319 320 319 318 318 318 318 318 317 317 317 317 317 317 317 317 317 317
313 313 312 310 309 309 310 310 310 310 311 312 313 315 318 318 316 314 314 315 316 316 316 318 317 316 315 314 315 314 315 316 319 321 322 321 321 321 321 321 320 319 320 320 319 318 317 316 314 316 319 317 315 318 320 320 321 324 322 317 318 320 319 318 319 319 319 319 319 318 319 319 318 318 317 317 316 316 317 317 317 317 317 317 317 317 317
314 314 313 312 310 309 309 310 311 310 310 311 313 316 318 320 319 316 313 314 316 316 317 318 318 317 316 315 314 315 315 315 317 320 321 320 320 319 320 320 319 318 319 319 317 315 316 315 314 318 319 315 315 320 321 319 321 325 322 318 318 319 318 318 319 318 318 318 317 317 317 317 317 317 316 316 315 315 316 317 317 317 317 317 316 317 316
314 314 314 313 311 309 308 310 311 311 310 311 314 316 317 318 318 316 313 313 315 317 317 317 317 316 317 317 316 316 316 316 316 318 319 318 318 319 319 319 318 317 316 317 316 315 315 314 315 317 318 316 318 323 324 322 323 324 318 315 317 318 318 319 319 318 318 318 317 316 316 316 316 316 316 316 316 316 317 317 317 316 317 317 317 316 316
314 314 314 314 313 311 309 309 311 312 310 310 313 316 316 316 316 314 313 312 315 317 317 317 317 316 316 316 316 316 317 317 316 316 317 318 318 318 318 318 318 318 317 317 317 315 315 316 315 315 316 317 319 321 324 325 323 320 317 316 317 317 318 319 318 318 318 318 317 316 316 316 316 317 318 317 317 317 317 317 317 317 317 316 316 315 316
314 314 314 314 314 313 310 308 310 312 311 310 312 314 315 316 316 314 311 311 314 317 316 316 318 318 316 315 316 317 318 318 318 317 317 318 318 318 317 318 318 318 318 317 316 315 315 315 315 316 319 319 317 319 324 326 321 316 317 317 317 318 318 318 318 318 318 317 318 318 317 317 317 318 318 318 318 318 317 317 317 316 316 315 315 315 316
312 314 314 314 314 314 311 308 310 312 312 310 311 312 313 315 315 313 311 312 315 317 315 313 317 321 319 317 318 319 318 318 319 319 318 318 319 318 317 317 317 319 319 317 316 314 314 314 316 320 320 319 320 322 325 323 319 316 318 318 317 318 319 317 317 318 317 317 317 317 316 316 317 317 317 317 317 317 317 316 316 316 316 316 315 315 315
311 313 314 314 314 314 312 309 309 313 312 311 312 313 313 313 313 312 312 312 315 317 316 314 317 321 323 323 321 318 317 318 319 318 318 319 320 318 317 319 320 319 318 317 316 316 315 315 318 320 318 318 322 325 321 318 317 317 318 318 318 319 319 318 318 318 318 317 317 317 316 316 316 316 316 316 316 316 316 316 315 316 316 316 315 315 315
311 312 313 314 314 314 311 309 310 313 314 313 314 315 314 312 312 311 310 311 314 315 315 317 317 317 317 321 319 316 315 318 319 319 319 320 319 318 318 321 321 318 317 319 320 320 318 316 317 320 322 322 322 320 316 316 318 318 317 318 319 319 319 319 318 318 318 317 317 316 316 316 316 316 316 316 316 316 316 316 316 315 315 315 315 314 314
310 312 313 313 313 312 310 310 311 313 315 315 315 314 314 312 310 310 310 311 313 314 314 316 318 315 315 318 318 315 316 318 318 319 320 319 318 317 316 318 319 317 318 323 322 318 318 320 319 321 323 321 317 316 317 317 317 317 317 318 319 318 319 319 319 318 318 317 317 316 317 317 317 317 316 316 315 316 316 316 316 315 315 315 315 314 314
310 312 313 312 311 311 312 313 313 314 315 316 315 315 313 311 312 313 313 312 313 315 314 315 316 315 317 319 318 316 315 315 318 323 323 319 318 318 317 317 317 315 317 322 320 315 320 324 322 322 324 320 315 316 318 317 316 318 318 318 318 318 319 319 318 318 318 318 317 317 317 317 317 317 317 316 316 316 316 316 315 314 315 315 314 314 314
311 312 312 311 311 312 314 315 315 315 315 315 314 314 313 311 313 315 314 312 313 314 314 315 315 314 315 317 317 316 315 316 319 324 324 320 317 317 317 316 316 315 318 322 319 316 321 324 321 323 328 326 318 315 317 318 317 318 318 318 318 318 318 318 318 317 317 317 318 318 318 317 317 317 316 316 316 316 316 315 314 314 314 314 314 314 314
310 311 311 311 312 313 315 315 315 315 315 314 313 313 313 313 312 312 312 314 315 314 312 313 314 312 313 315 316 316 316 316 317 320 320 318 316 316 317 316 313 314 319 321 319 318 322 323 322 325 327 323 316 315 317 317 316 316 317 318 318 318 318 318 318 317 317 317 317 317 317 317 317 316 315 315 315 316 316 315 314 314 314 314 314 314 313
308 310 311 311 312 314 315 315 315 315 314 314 313 313 313 312 312 311 311 313 314 314 312 312 313 312 312 314 314 315 315 316 316 318 318 316 314 317 319 317 314 316 321 322 319 319 320 320 323 328 325 317 314 316 317 315 316 317 317 318 318 318 318 318 317 317 317 317 317 317 317 316 316 315 315 315 315 315 315 315 314 314 314 313 313 313 313
308 309 310 311 312 314 315 315 314 315 315 314 314 314 313 312 312 313 312 312 312 312 312 312 311 312 313 313 313 315 316 316 316 317 317 315 315 317 318 317 316 318 320 319 318 319 321 322 326 328 322 315 314 317 316 315 316 318 318 318 318 318 318 318 317 317 317 316 316 316 316 315 315 315 315 315 315 315 315 314 314 314 314 313 313 313 312
308 308 308 310 311 312 314 315 314 314 315 314 313 313 313 313 313 315 315 313 312 312 313 312 311 313 314 313 314 315 316 316 317 316 314 314 316 318 319 321 320 317 316 317 320 322 324 326 325 321 316 315 316 316 315 316 317 318 318 318 318 317 317 317 317 316 316 316 316 315 315 315 315 315 314 315 315 315 315 314 314 314 314 313 313 312 312
306 306 307 309 310 312 313 314 314 314 314 314 313 313 314 314 314 315 315 314 312 313 313 312 312 312 313 313 315 317 316 315 316 316 313 313 316 317 319 322 320 316 316 320 321 320 322 324 320 315 314 316 316 314 315 316 317 318 318 318 317 317 317 317 316 316 316 316 315 314 314 315 315 315 315 315 315 315 315 315 314 314 314 313 313 312 312
305 305 305 307 309 311 313 314 314 314 313 312 312 313 314 313 312 313 313 312 312 313 314 313 312 313 314 314 316 317 315 315 316 316 314 315 318 318 316 316 315 315 318 320 319 320 323 322 316 314 314 315 314 314 315 316 317 318 318 318 317 317 317 316 317 316 316 315 315 314 314 314 314 315 315 315 315 315 315 314 314 313 314 313 312 312 311
305 304 303 304 306 309 311 313 313 313 312 311 312 312 312 311 311 311 312 312 312 313 313 313 312 313 314 316 316 316 315 316 317 316 314 315 317 316 314 314 316 318 319 318 319 323 325 319 313 313 314 314 314 315 315 315 317 319 318 317 317 317 316 316 317 316 315 315 315 314 313 314 314 315 315 315 314 314 314 314 314 314 313 313 312 311 311
304 304 303 304 305 307 310 311 312 311 312 312 312 312 311 311 311 311 312 312 312 313 313 313 314 315 315 316 316 314 313 314 316 315 314 315 314 314 315 317 317 318 320 321 323 326 323 316 312 314 315 314 314 315 314 315 318 318 317 317 317 316 316 316 316 315 315 315 314 314 314 314 315 315 315 314 314 314 314 313 314 313 313 313 312 312 311
303 303 303 303 303 304 306 308 309 310 312 312 312 312 312 311 311 311 311 312 312 313 312 313 315 316 316 316 316 315 314 314 315 315 314 314 315 315 317 318 316 318 323 324 321 318 316 314 313 314 314 313 314 315 314 315 317 318 317 317 317 316 316 316 315 314 315 314 314 314 315 315 315 315 314 314 314 314 313 313 313 313 313 313 312 312 311
301 302 303 302 303 304 306 307 308 309 311 311 311 312 312 311 311 312 312 312 312 312 312 313 315 316 315 315 317 318 316 315 314 314 314 315 316 316 315 317 319 325 328 323 315 312 313 313 313 314 314 313 314 315 315 317 318 317 317 317 316 316 316 316 315 315 315 314 314 315 316 315 316 315 314 314 314 314 313 313 313 313 312 312 312 311 311
300 301 302 302 303 305 306 308 309 309 310 310 310 311 311 311 311 311 312 312 311 312 313 314 315 316 316 316 318 318 315 312 313 316 317 318 317 317 318 320 321 322 321 316 312 313 314 313 313 314 314 314 315 316 317 317 317 317 317 316 316 315 316 315 314 314 314 315 315 316 315 316 315 315 314 314 314 313 313 313 313 312 312 312 311 310 310
301 301 302 302 303 304 305 305 306 307 307 308 309 310 311 311 311 311 311 312 312 312 312 312 315 318 319 318 316 315 314 313 315 317 317 316 315 317 320 322 318 314 313 312 313 314 313 313 313 313 314 314 316 317 317 316 317 317 316 315 315 315 314 314 314 314 315 315 315 315 315 315 315 314 314 313 313 313 313 312 311 311 311 310 310 310 311
Wind_Speed
16 17 15 10 5 2 2 3 4 7 8 11 13 10 5 3 0 5 12 10 6 4 1 4 2 2 5 7 8 7 2 1 1 1 3 3 3 4 3 2 3 2 3 4 4 4 3 2 2 3 1 0 1 2 5 4 4 4 1 2 2 2 4 4 2 3 3 4 6 7 8 6 5 3 2 3 2 2 5 4 3 3 3 2 4 2 4
15 17 16 12 7 2 1 3 4 7 9 10 11 8 3 2 2 3 10 10 7 4 2 1 2 4 6 7 6 2 4 4 3 1 2 3 2 2 1 2 3 1 2 4 3 4 3 1 1 2 1 1 2 5 8 6 4 2 2 1 1 1 2 4 3 3 5 6 6 7 7 4 2 2 4 4 3 4 4 2 3 4 2 3 5 1 5
14 16 16 13 8 3 1 3 5 6 9 9 8 5 2 1 1 2 6 10 8 4 3 3 2 3 4 4 3 2 6 7 8 7 4 5 5 3 1 3 6 4 3 5 5 4 4 2 0 1 1 0 3 6 10 9 5 2 3 1 2 2 2 3 5 3 1 0 2 2 2 2 2 3 4 5 6 5 4 2 4 3 1 3 5 4 3
13 15 16 14 9 3 1 3 4 6 8 8 7 5 2 1 0 2 2 6 8 7 6 2 2 2 1 2 2 3 3 3 9 10 6 6 8 6 3 5 7 6 5 6 5 5 5 4 2 1 1 1 2 2 6 8 6 4 4 4 4 4 3 2 6 6 5 6 5 4 3 2 1 2 5 6 6 6 6 4 4 3 2 4 1 4 3
11 14 15 14 10 4 1 2 4 6 7 7 7 5 3 1 1 2 1 2 4 6 8 5 2 3 2 1 2 1 2 0 5 6 3 5 7 6 6 6 5 3 4 6 4 4 5 5 3 1 1 1 1 2 3 5 7 7 7 6 4 4 3 2 6 5 6 7 5 3 4 5 4 2 4 5 5 7 7 5 4 5 5 3 3 4 6
10 13 15 14 11 6 2 2 4 6 5 6 6 4 2 1 3 3 2 3 3 3 7 8 8 7 3 2 1 1 2 2 2 2 2 4 5 4 5 7 5 3 4 5 2 3 5 5 3 1 2 2 2 5 6 5 6 6 6 5 4 6 2 1 4 2 3 4 3 2 4 4 4 5 5 5 6 7 7 4 5 6 6 4 5 6 7
8 11 14 14 11 7 2 1 4 5 4 5 5 3 2 2 5 5 3 3 4 6 8 8 9 6 3 2 1 0 3 3 2 2 2 3 4 5 4 4 5 6 5 6 3 2 3 1 2 1 1 2 2 2 3 4 4 4 4 3 3 5 0 3 3 3 1 2 1 1 4 3 2 2 4 6 7 7 6 3 4 6 6 6 6 7 6
7 10 13 14 12 8 4 1 3 4 4 4 4 3 2 2 3 5 5 4 4 5 5 7 7 3 2 2 2 3 5 3 3 3 6 3 2 5 6 4 5 6 6 7 4 3 7 5 2 4 3 2 2 2 2 1 3 4 3 2 3 4 1 3 3 4 3 4 2 2 4 6 4 4 3 6 6 5 4 3 4 7 6 5 7 8 3
6 8 11 14 12 8 5 2 3 3 3 3 4 3 2 3 4 6 5 4 5 2 3 7 6 1 1 1 3 3 4 5 4 2 5 8 6 6 8 8 5 5 7 7 3 2 7 7 4 4 5 4 4 2 4 5 2 3 1 1 3 3 1 2 5 4 3 5 2 1 4 8 7 6 3 4 5 4 1 2 4 6 7 6 7 6 3
5 7 10 13 13 9 6 4 4 4 4 4 5 4 3 3 4 5 3 2 4 2 2 5 3 3 3 4 3 3 4 6 6 4 4 6 13 14 14 12 6 5 5 4 1 2 3 3 1 1 1 2 4 7 8 9 5 2 1 2 2 3 3 1 3 3 4 6 1 1 5 7 4 3 2 3 3 3 2 2 2 5 7 6 5 4 6
4 6 8 11 12 10 7 5 5 6 5 4 3 3 3 3 3 2 1 1 4 2 2 2 2 2 4 6 4 1 3 4 7 6 2 4 11 16 17 15 9 4 3 2 1 2 2 1 2 1 3 5 4 10 12 10 7 5 4 3 2 3 5 2 3 3 3 5 3 5 5 2 3 6 5 6 5 6 5 3 1 3 4 4 5 4 4
4 5 7 9 11 11 8 5 5 6 6 5 3 1 2 3 3 2 2 1 3 3 1 3 4 4 6 7 3 1 4 8 13 15 10 5 9 14 15 13 8 3 4 3 1 1 0 3 4 3 2 4 6 9 12 9 6 6 7 6 3 3 4 1 1 4 1 3 6 5 1 5 6 6 2 5 8 8 7 4 1 2 7 8 7 6 7
4 4 5 7 10 11 9 6 4 5 6 4 2 1 2 3 1 1 1 1 2 2 1 4 7 8 8 7 8 6 11 19 22 21 16 10 11 12 9 8 6 5 4 2 0 1 1 3 3 4 5 4 2 3 6 6 5 5 6 6 5 4 4 2 2 2 1 3 4 2 4 6 5 6 3 4 5 5 7 6 5 2 4 9 9 7 9
5 4 4 6 8 10 9 6 3 4 5 4 3 2 2 1 2 0 1 1 2 4 1 2 5 7 9 13 14 9 11 19 20 16 15 13 12 11 9 9 7 5 3 2 1 3 2 2 4 5 5 5 5 3 2 1 2 3 5 5 6 6 4 2 2 1 2 3 1 1 2 4 5 4 1 2 1 3 5 4 2 6 3 7 9 7 8
5 4 4 5 6 8 9 7 3 2 4 4 3 3 2 0 3 1 1 1 1 3 1 2 5 9 13 15 15 9 6 9 11 10 11 13 12 11 9 8 6 3 2 1 2 4 3 3 4 3 3 2 0 2 2 1 2 2 4 6 7 6 3 3 3 1 2 4 2 2 2 3 5 6 5 2 3 6 7 6 1 6 3 11 13 9 10
5 5 4 4 5 6 8 8 4 1 3 3 3 2 2 1 2 2 1 3 1 2 8 9 4 15 16 12 14 12 6 4 6 5 5 7 8 10 8 5 4 4 1 1 3 4 4 3 3 2 1 3 3 2 0 1 1 4 3 6 9 7 4 5 4 2 2 4 3 2 2 4 6 8 6 2 6 7 7 6 2 6 5 13 15 13 13
5 6 5 4 4 5 7 8 6 3 2 3 3 2 1 1 1 2 1 4 2 3 12 10 8 19 13 5 7 10 9 7 7 5 2 2 5 7 6 4 4 3 1 2 3 4 4 2 2 2 2 4 3 2 0 2 2 3 4 4 6 5 4 4 2 1 1 3 2 2 3 3 5 6 5 4 7 7 7 3 5 8 10 13 15 15 14
5 6 6 5 4 4 5 7 7 4 3 4 5 4 2 2 2 2 3 5 3 5 13 13 12 14 8 3 4 7 9 9 7 5 4 3 5 6 6 6 5 2 0 0 2 4 3 1 1 2 3 4 1 3 1 2 2 3 2 2 2 2 3 2 2 2 1 3 1 2 3 4 5 5 4 6 6 6 4 2 7 12 14 12 13 15 13
5 6 6 5 4 3 4 6 6 5 4 4 5 4 3 2 2 2 5 7 6 7 13 13 11 11 8 6 6 7 9 8 6 6 5 2 4 8 8 6 4 2 1 2 3 3 2 1 1 3 1 4 1 2 2 1 3 3 3 3 2 1 1 1 2 2 1 2 3 1 3 4 5 6 6 6 4 1 4 5 7 14 14 10 11 13 12
5 6 6 6 5 3 3 4 5 5 4 3 4 4 4 3 2 3 7 9 9 11 14 14 12 13 12 10 10 9 8 7 7 8 6 5 10 11 7 1 2 1 2 3 1 1 2 1 3 1 1 2 2 2 1 2 3 2 3 3 3 3 3 1 2 3 1 2 3 1 2 6 9 7 4 2 3 5 6 6 10 14 11 7 11 13 12
5 6 6 6 6 4 3 3 4 5 5 4 2 3 4 5 4 5 8 9 8 8 11 12 11 12 13 14 14 11 10 9 7 10 11 11 12 9 4 3 4 2 1 2 2 0 0 1 1 1 1 1 1 2 2 1 4 4 1 3 1 2 3 2 3 2 3 2 2 4 4 9 15 12 5 5 8 9 10 11 12 11 8 6 11 14 13
6 6 6 6 6 5 3 2 3 3 5 5 4 2 4 7 7 7 8 8 8 8 8 9 9 9 9 9 10 10 10 11 8 10 13 12 8 7 8 8 7 3 2 3 4 1 0 1 1 1 1 1 2 1 2 3 2 5 3 3 1 3 3 4 2 2 4 4 5 6 5 9 18 17 10 9 12 12 13 13 11 9 8 11 15 15 12
5 5 6 7 6 5 4 3 2 3 3 4 5 4 4 7 9 9 9 10 11 11 9 8 8 7 7 6 7 7 7 7 7 8 12 12 9 10 11 11 9 5 4 5 4 4 3 1 2 3 0 1 1 2 2 2 0 3 2 1 2 3 1 4 2 0 0 1 2 3 4 7 16 17 11 11 14 13 12 11 9 11 12 13 15 14 11
4 5 5 6 7 6 5 4 2 2 3 3 4 5 4 5 8 10 10 10 10 9 7 7 8 8 7 6 6 5 3 2 3 5 7 9 8 6 7 10 9 7 9 10 7 6 5 1 1 3 0 1 2 2 1 1 1 1 1 2 3 2 3 2 1 2 2 2 5 6 5 8 11 12 11 13 15 12 10 10 11 14 15 13 12 14 12
4 4 5 6 7 7 6 5 3 2 2 3 4 5 3 4 8 10 10 9 8 7 4 5 7 9 7 4 3 3 3 2 2 1 1 3 6 7 9 11 10 9 11 11 7 6 7 3 2 3 1 1 1 1 2 1 2 2 2 1 3 1 3 1 0 2 2 2 2 4 3 2 7 9 10 13 15 12 10 10 10 12 13 11 11 13 11
4 3 4 5 7 8 7 6 4 3 2 2 2 3 3 4 7 8 8 8 8 6 4 3 6 8 6 4 4 3 2 1 2 2 3 2 2 6 10 12 11 9 10 9 5 6 7 4 2 3 2 1 1 1 3 2 1 1 1 3 4 3 1 0 1 2 2 2 1 6 9 6 5 8 10 12 13 12 12 12 11 10 10 9 8 8 7
3 3 3 4 6 8 8 7 5 4 3 2 1 2 4 4 6 7 7 8 7 3 2 3 7 7 4 4 5 2 2 0 4 5 4 3 4 6 8 9 9 8 7 6 5 6 6 3 2 2 2 1 0 1 1 1 1 1 1 4 3 3 1 1 3 2 2 3 3 2 3 2 6 10 11 10 12 13 12 11 10 9 9 9 8 8 9
3 3 3 3 5 7 9 8 7 5 4 3 3 1 2 2 5 6 7 7 5 3 4 6 8 8 5 4 6 4 2 4 6 5 5 6 7 8 8 7 8 8 7 6 5 5 4 3 2 2 1 2 1 1 2 2 1 1 2 4 3 3 5 4 5 3 4 6 5 4 6 8 10 10 9 9 10 10 8 8 8 8 9 8 7 7 8
4 3 3 3 3 6 9 9 7 6 5 5 5 3 0 1 3 4 5 5 4 5 8 8 7 6 5 6 7 6 5 6 7 6 6 6 6 6 7 7 8 8 7 7 7 5 4 3 3 1 1 3 2 1 2 2 0 3 5 5 3 3 5 6 7 5 4 5 7 6 7 9 9 8 7 7 7 6 7 8 8 6 5 4 3 4 7
5 4 4 4 3 5 9 10 8 7 6 6 6 4 2 1 1 2 3 3 4 5 7 6 4 4 5 6 7 6 5 5 7 8 7 5 5 5 6 7 7 7 7 7 6 4 2 2 3 4 4 4 3 2 1 1 2 5 4 3 6 7 5 5 5 3 4 7 8 6 5 6 6 5 5 6 6 7 7 9 8 5 3 4 5 6 10
8 6 6 5 4 4 8 11 10 8 7 8 7 4 1 1 2 2 2 3 4 5 6 5 5 5 4 5 6 6 3 4 8 9 7 5 5 5 5 6 6 6 6 6 5 4 3 3 3 5 6 5 3 2 3 3 1 5 4 7 7 4 5 6 5 3 5 8 6 4 5 6 5 5 5 5 6 8 9 9 8 5 3 4 6 8 9
10 8 7 6 5 4 6 10 11 9 8 9 8 5 3 2 1 2 3 3 3 4 5 5 4 3 2 2 5 6 5 5 8 9 8 6 5 6 6 6 6 5 5 6 6 3 2 3 4 4 5 5 3 2 3 4 3 6 8 7 6 7 6 9 7 5 7 8 7 5 5 6 6 6 5 6 8 8 8 8 8 6 5 3 6 9 10
12 10 8 8 6 5 5 9 12 10 9 10 9 7 5 3 1 2 4 4 4 4 4 3 2 1 1 2 4 7 8 8 8 9 8 6 6 7 8 8 6 5 5 4 3 2 2 4 4 3 4 5 4 2 1 4 8 11 13 12 11 8 7 12 10 8 9 11 9 7 6 6 6 6 7 8 8 6 6 8 9 7 5 5 7 12 14
11 10 10 9 8 6 6 7 11 11 9 9 10 9 8 5 3 1 3 5 5 4 3 3 2 1 0 0 2 7 10 9 8 9 7 5 6 8 8 7 5 5 3 3 2 2 2 4 4 3 3 4 3 1 1 6 11 12 13 12 10 8 9 13 12 8 8 10 11 11 8 7 8 9 9 8 7 6 6 8 9 9 7 5 9 16 17
11 10 10 9 8 7 7 6 10 11 10 9 9 9 9 7 5 2 2 4 5 3 3 3 2 2 2 1 1 6 11 9 8 9 8 6 7 7 6 5 3 2 3 3 3 3 3 4 5 4 2 2 2 2 5 7 9 10 9 9 9 9 9 13 12 8 7 9 12 13 11 9 9 10 9 7 8 7 6 6 9 10 10 9 13 18 16
13 11 10 9 8 8 7 6 9 11 9 8 8 8 7 7 7 5 4 5 5 3 3 4 2 3 5 2 2 7 12 9 7 8 9 7 7 6 5 4 2 2 3 3 2 2 4 6 6 2 1 1 4 8 11 11 10 10 10 9 7 6 7 11 11 9 8 9 12 14 14 11 9 9 8 7 7 8 9 9 9 10 10 13 17 19 16
13 11 9 8 8 7 6 6 9 10 9 7 7 7 5 5 6 5 5 6 6 4 4 3 2 4 6 2 2 8 11 9 6 7 7 7 6 4 4 4 2 2 3 1 1 3 6 7 5 2 2 6 10 14 15 14 13 13 12 10 8 7 7 9 11 11 10 10 12 15 16 12 9 9 10 9 8 8 10 13 12 11 13 18 21 20 16
11 10 8 6 5 5 4 4 7 9 9 7 6 5 4 4 4 4 5 6 6 7 6 4 4 6 6 2 2 8 10 8 6 5 4 6 5 2 1 2 2 2 1 2 4 5 4 2 2 2 5 11 17 19 19 18 17 16 13 12 12 11 9 9 12 13 13 14 16 17 16 12 8 8 8 9 9 9 9 13 15 14 15 21 23 20 17
9 8 7 6 6 5 3 4 6 9 9 7 5 4 4 4 3 2 4 4 4 6 7 6 6 9 8 4 3 8 9 7 5 3 3 6 5 2 1 2 2 2 1 2 4 5 2 2 1 1 3 8 14 19 21 20 19 19 18 16 16 15 12 11 11 12 12 13 14 15 14 11 9 8 8 8 9 10 10 12 16 16 17 21 22 20 17
8 8 6 7 8 7 6 7 8 8 7 6 5 4 3 4 4 3 3 3 2 4 7 7 8 12 13 8 5 7 9 8 6 5 5 5 5 3 3 2 2 3 1 2 4 6 3 1 1 2 3 6 11 16 16 15 16 17 16 15 15 15 15 14 11 10 10 11 11 11 10 8 8 7 6 7 7 8 9 12 18 19 19 21 21 18 16
8 8 9 10 10 9 9 9 9 7 6 6 4 1 1 3 4 4 4 3 1 4 8 9 6 9 14 14 9 7 8 9 8 7 6 5 4 4 3 1 2 3 1 4 4 4 3 1 1 2 5 9 12 13 12 12 13 13 10 10 14 16 16 14 11 10 10 11 11 10 9 8 7 7 7 6 5 5 6 13 18 19 20 20 17 13 12
10 10 11 11 11 10 10 10 9 7 4 3 2 1 1 3 3 3 4 4 3 4 9 11 9 8 13 17 14 9 7 8 9 6 4 3 5 5 3 1 1 1 2 4 3 3 2 1 2 4 9 11 11 11 9 9 11 12 11 14 17 19 17 14 11 11 12 12 11 9 8 8 7 7 6 6 5 5 9 15 19 20 19 16 12 10 10
13 11 10 10 12 11 9 8 9 6 2 0 2 2 2 2 2 2 2 4 5 6 8 11 11 8 10 14 14 10 8 9 8 4 3 4 6 4 2 2 1 1 3 2 3 3 1 4 4 6 9 9 9 10 10 10 11 11 15 18 19 19 16 13 11 11 12 13 12 11 10 9 7 7 7 7 7 8 12 17 19 18 17 14 11 9 9
15 11 7 8 10 9 6 5 8 7 3 2 4 4 3 4 4 3 3 5 7 8 10 14 15 11 10 12 13 9 7 8 7 3 3 4 3 3 2 1 3 2 1 2 1 1 3 5 7 10 11 11 13 14 14 12 11 13 18 20 19 16 14 13 12 12 12 12 12 12 12 10 8 8 9 10 10 12 15 18 17 15 14 12 10 9 7
12 8 5 4 6 9 7 4 5 6 4 3 4 4 4 5 4 4 5 9 12 12 14 18 20 16 13 13 11 7 6 7 6 4 3 3 2 1 2 3 2 1 2 1 1 2 3 4 7 12 15 16 17 15 13 11 13 19 21 20 18 17 15 15 15 13 12 11 11 11 12 10 9 9 11 12 13 14 16 17 16 14 13 12 11 10 8
7 5 3 2 4 7 6 3 2 4 4 4 5 6 6 7 8 9 10 12 15 17 19 20 21 18 15 12 8 6 5 6 5 4 4 4 2 2 3 3 2 1 1 1 3 4 5 6 8 12 14 16 15 13 12 11 15 23 23 21 19 19 17 16 15 13 12 11 9 9 11 11 10 11 13 15 16 15 16 16 16 15 13 12 11 10 8
6 4 3 2 3 4 4 4 4 4 4 5 9 12 11 11 14 16 16 14 15 18 20 20 19 18 15 11 7 5 5 5 3 3 4 4 1 1 2 2 1 1 3 4 5 5 5 9 13 16 16 16 15 14 14 12 17 25 25 21 20 20 18 16 14 12 12 11 10 9 9 10 11 13 16 18 18 17 17 18 17 14 11 10 10 8 5
6 4 3 2 2 2 3 3 3 4 6 8 11 15 15 14 16 20 20 17 16 18 19 17 13 10 10 9 7 4 3 4 3 3 3 3 1 0 1 0 2 2 3 5 6 5 7 13 17 17 16 16 16 16 15 15 20 26 24 21 21 21 18 15 14 12 11 11 11 10 10 12 13 15 18 20 19 19 18 17 15 13 11 10 9 6 4
7 5 5 4 3 5 8 9 10 7 7 11 15 19 20 18 18 20 21 19 19 20 19 15 9 5 5 6 5 2 2 3 3 2 2 2 2 1 2 2 4 4 4 3 5 8 14 19 19 16 16 17 17 16 15 17 22 27 24 21 21 21 18 14 13 12 11 11 11 11 12 13 15 18 20 19 18 18 18 15 13 12 11 9 8 6 5
9 7 7 7 5 5 9 9 7 6 6 9 14 20 22 22 21 20 19 20 22 20 15 12 9 6 3 3 3 1 2 4 3 2 2 3 3 3 3 4 5 5 5 7 11 18 23 23 19 17 18 18 17 16 15 17 23 27 25 21 20 18 15 13 12 12 12 12 11 11 14 16 18 19 18 16 16 17 16 14 12 11 9 8 7 5 6
8 8 10 14 14 10 8 6 5 5 6 4 3 8 13 19 22 21 18 18 18 13 8 8 7 4 2 2 2 2 3 4 4 3 3 4 3 3 4 5 5 6 8 13 17 18 17 16 15 15 16 16 16 16 17 21 26 26 23 19 17 15 13 11 10 11 13 13 12 13 16 19 19 17 15 14 16 17 16 14 12 10 8 7 6 6 8
7 7 7 12 18 20 17 15 15 15 13 10 7 3 1 5 8 11 12 14 13 12 11 10 6 3 2 4 4 3 4 4 3 3 4 4 3 4 5 7 9 12 15 17 16 14 13 14 14 14 15 15 16 18 21 24 25 23 19 16 14 13 12 10 9 10 12 13 14 16 19 19 17 16 16 17 18 18 17 15 13 9 7 6 7 8 9
Wind_Direction
16 17 19 17 18 42 145 159 161 170 169 171 171 168 184 224 14 149 170 187 213 181 110 334 315 255 267 291 295 279 252 136 174 25 39 43 38 42 46 52 62 78 97 92 96 100 80 51 106 153 184 262 258 343 20 51 66 66 70 304 343 51 81 77 37 320 314 331 1 23 26 49 69 26 19 86 65 105 139 153 144 74 29 72 83 65 264
15 16 17 15 17 33 159 160 165 173 168 171 176 175 200 261 304 164 170 189 210 181 159 249 268 287 298 300 289 313 51 72 125 130 49 55 50 48 36 33 46 55 94 86 111 128 99 52 132 140 152 311 1 46 67 78 70 62 140 185 15 44 92 87 69 4 350 348 350 360 1 18 71 354 357 46 55 70 84 83 86 62 25 130 113 143 248
13 14 15 13 14 20 181 173 174 175 173 177 179 184 228 282 297 239 191 204 213 198 188 179 193 283 317 317 283 33 47 65 88 84 72 71 70 74 340 32 45 39 58 65 61 80 99 135 245 41 94 320 11 64 86 89 83 101 163 163 57 99 126 109 112 124 143 205 295 295 308 332 355 347 4 36 45 58 82 76 67 67 31 87 111 170 231
11 11 13 12 11 9 240 193 183 178 182 190 187 198 262 17 227 263 226 215 211 217 237 197 130 258 286 345 326 63 72 69 71 65 59 64 67 64 22 20 40 39 57 72 50 43 71 100 102 68 85 322 329 79 90 84 81 85 79 49 52 86 73 92 130 151 175 182 217 223 157 103 44 3 26 46 53 65 93 94 87 135 111 48 138 173 106
10 10 11 10 11 7 284 208 194 189 192 202 202 218 279 348 214 219 161 223 237 246 257 238 192 237 198 160 294 83 128 36 39 38 49 72 64 57 36 28 42 47 69 83 55 21 48 58 55 59 37 356 330 359 38 58 65 66 58 45 62 87 48 71 129 156 198 189 206 221 123 127 172 158 72 69 72 70 80 97 136 140 98 47 251 156 106
8 9 10 10 12 8 328 214 202 200 201 212 215 230 254 240 294 291 209 216 212 216 244 227 215 240 230 165 294 20 92 95 69 41 64 68 55 60 40 24 45 102 108 104 81 12 36 33 16 35 28 25 25 359 351 14 45 60 56 43 82 105 92 196 131 133 228 203 190 123 111 136 166 152 136 121 108 100 99 131 163 138 121 176 200 132 126
6 8 10 10 12 13 4 212 203 203 208 220 221 226 242 266 309 313 284 240 203 205 230 209 190 215 215 120 6 148 138 149 179 153 74 24 23 87 97 22 43 68 80 103 110 88 96 42 310 168 65 44 97 34 346 343 6 48 59 40 78 98 209 239 117 86 317 275 262 95 105 122 98 106 149 141 128 124 115 131 146 112 116 159 154 127 148
2 8 11 11 13 20 27 136 193 200 209 223 219 224 274 318 321 321 324 307 272 241 217 165 152 171 135 97 285 204 153 173 211 148 121 125 23 79 114 119 86 72 71 86 91 173 167 160 172 159 125 78 142 181 205 237 356 23 48 16 46 80 222 242 93 76 326 313 313 21 83 107 83 36 81 113 106 94 83 101 111 91 97 136 126 122 171
355 6 12 12 15 24 39 95 160 183 192 194 190 204 267 316 305 305 311 310 311 298 142 126 124 128 107 145 242 209 172 188 190 125 123 150 154 136 135 132 101 58 61 76 69 204 170 155 150 149 133 129 145 157 174 163 109 17 34 27 33 73 132 321 63 82 287 288 267 305 55 80 62 20 39 100 98 99 115 154 138 127 134 132 107 117 207
345 2 12 15 17 24 45 91 136 156 170 179 179 199 262 323 312 282 249 267 306 301 106 90 107 171 191 196 208 210 204 186 144 80 37 120 139 144 138 125 103 65 68 83 76 83 119 128 90 61 182 187 131 116 142 152 139 152 147 61 47 96 99 39 82 108 274 283 240 40 38 53 24 316 206 149 113 115 112 49 108 143 143 138 137 173 214
329 353 10 17 19 24 42 83 127 150 163 173 177 205 273 333 341 300 173 236 295 304 75 82 125 168 208 205 202 194 175 145 116 109 57 73 119 134 132 119 107 103 117 124 98 87 92 345 333 328 231 225 174 125 127 123 112 137 141 90 43 78 96 129 127 117 271 299 37 57 40 53 246 248 206 171 150 137 122 91 145 167 138 133 147 157 175
302 342 3 16 21 25 35 68 113 141 155 161 157 170 318 338 347 352 61 116 291 331 19 212 201 194 204 189 167 170 148 114 104 114 115 89 105 124 127 118 111 132 146 133 114 130 190 309 314 313 286 237 196 147 128 117 116 134 128 119 113 70 79 123 90 95 152 344 47 63 287 235 243 280 275 147 140 135 120 77 10 141 121 115 116 130 152
276 318 351 10 21 27 32 52 93 121 132 140 140 96 349 348 24 341 20 135 245 284 289 259 238 212 191 132 96 105 122 111 105 106 105 98 102 106 106 105 113 134 146 155 143 90 44 347 348 330 327 342 18 119 127 138 153 129 101 107 129 116 101 96 68 88 85 35 64 131 239 255 287 322 342 115 106 97 88 49 348 300 137 130 136 161 164
258 288 334 359 15 26 30 43 77 118 124 121 108 71 360 347 126 100 356 93 256 261 244 285 246 194 141 107 103 105 103 102 100 96 97 101 99 94 95 105 114 128 153 178 41 53 62 33 29 4 339 3 20 348 292 206 151 116 104 109 121 122 117 85 65 93 103 88 103 242 308 312 315 317 280 161 162 156 127 109 297 284 237 148 143 166 168
248 264 305 341 7 22 26 36 63 132 141 123 102 72 21 59 156 201 334 52 301 296 8 272 212 150 124 120 122 114 86 94 97 93 98 103 100 99 107 114 122 146 193 165 71 56 67 79 56 19 348 8 23 266 278 325 7 43 118 120 102 98 120 131 116 72 87 97 82 21 14 298 256 248 257 255 174 158 132 113 334 293 235 147 138 151 162
243 249 275 316 351 14 20 29 47 123 162 140 117 91 63 107 179 214 333 35 53 13 348 320 208 137 126 131 130 124 124 122 109 91 76 86 107 122 130 146 164 172 195 52 77 75 74 87 112 147 202 216 199 207 255 151 8 348 26 79 69 54 59 101 98 40 67 101 112 168 206 245 239 240 255 213 140 128 96 78 324 277 204 146 141 151 152
242 242 253 287 329 1 14 22 35 66 138 153 140 116 120 192 212 196 62 35 43 28 9 3 134 134 122 124 133 133 144 139 122 116 113 141 141 130 133 169 175 157 123 18 48 62 72 87 97 97 251 234 173 146 216 136 128 305 325 34 46 31 26 58 72 330 120 111 116 207 225 239 236 240 237 168 132 100 79 54 274 237 193 162 153 154 147
243 240 243 261 303 343 6 16 28 52 101 146 147 133 150 202 222 173 92 57 40 26 31 50 109 120 105 126 142 137 149 144 122 114 122 138 145 139 144 156 154 152 222 80 79 76 79 102 123 127 250 270 121 123 178 139 154 228 231 83 56 1 15 66 132 183 156 120 130 264 261 241 226 221 184 143 105 77 98 218 231 202 189 181 168 160 155
247 237 239 249 271 314 354 13 24 41 77 133 156 155 165 202 224 165 101 81 78 61 50 61 89 93 96 119 107 111 143 149 134 124 104 92 177 163 149 142 147 170 149 86 93 100 98 279 244 136 162 296 328 121 157 196 201 188 131 114 155 193 20 58 147 177 181 133 130 251 283 245 198 176 158 138 105 119 211 208 185 181 186 189 181 172 161
255 238 237 241 254 286 327 2 17 31 58 102 149 158 166 194 197 138 116 106 98 79 66 66 73 78 86 90 83 96 126 130 139 149 136 156 173 151 122 141 221 178 77 76 82 105 114 253 280 85 108 277 284 101 71 300 277 204 141 156 185 166 154 228 228 189 147 57 77 88 279 233 194 168 146 143 164 187 185 162 166 184 194 195 187 178 161
265 245 235 235 243 263 292 341 8 21 37 57 109 150 170 182 160 127 125 124 111 86 72 69 66 69 75 75 71 82 97 97 126 158 149 152 167 155 125 184 183 146 115 129 131 235 151 187 282 359 72 290 339 76 106 338 323 313 136 126 131 135 140 187 240 192 126 84 181 195 220 207 189 181 190 204 189 177 164 156 165 183 197 199 188 180 172
272 252 235 231 236 247 266 308 346 9 30 44 59 101 171 176 157 137 134 125 109 100 92 82 71 65 67 68 66 72 80 80 99 141 142 135 136 132 125 121 105 97 157 125 104 104 10 72 85 64 35 333 4 41 109 103 342 308 338 68 123 233 193 165 174 185 164 174 219 238 246 203 192 196 205 190 177 171 167 165 164 171 184 184 174 169 172
277 260 241 229 228 235 247 270 310 340 14 41 54 74 147 172 162 147 141 126 113 109 104 100 98 86 74 71 66 68 78 74 75 111 133 129 110 101 109 108 97 95 108 98 109 144 143 132 133 113 90 250 97 47 28 57 221 271 325 24 227 248 198 145 134 35 182 37 338 299 268 211 197 199 198 181 178 180 177 171 157 151 160 166 164 162 161
284 266 249 232 224 227 235 245 272 315 350 26 52 69 103 159 165 156 149 140 131 123 103 99 113 105 84 71 58 52 72 104 86 94 120 131 127 111 108 115 118 115 106 101 110 125 124 134 117 99 122 249 110 97 83 11 252 205 53 332 287 331 36 94 93 55 88 9 344 332 289 248 214 198 191 187 187 188 181 169 158 153 156 159 165 170 166
304 276 256 239 225 222 225 231 242 267 323 3 36 57 76 151 165 156 148 148 149 140 113 101 114 112 104 94 73 57 70 110 146 181 186 142 136 133 126 122 121 120 116 112 106 106 112 112 71 93 148 281 15 121 168 190 235 173 114 290 271 344 25 10 29 81 142 225 311 22 34 231 201 192 196 191 185 188 186 176 167 160 156 154 160 171 175
321 297 270 246 229 222 221 223 228 236 263 322 23 66 81 137 157 152 145 148 148 136 122 138 141 133 133 145 131 99 52 44 104 161 218 229 134 126 130 126 120 120 119 114 101 102 109 104 92 123 165 270 12 154 172 188 203 147 188 231 200 150 50 278 138 56 349 286 358 73 73 79 129 157 174 178 177 183 184 178 175 170 166 169 180 191 206
319 316 293 259 233 223 220 219 223 221 227 267 270 75 68 101 140 144 142 146 150 145 138 166 165 158 163 174 164 181 290 325 98 103 132 148 130 134 142 137 130 133 130 117 109 111 108 95 109 157 199 242 160 105 192 213 150 82 250 234 181 149 194 154 102 70 300 247 221 119 87 119 146 144 149 159 165 168 170 173 180 187 193 200 205 212 222
306 318 313 280 241 225 217 217 222 214 203 231 239 196 65 93 129 131 133 138 143 153 151 149 153 155 155 162 174 197 207 137 126 122 124 125 126 138 148 143 137 142 145 136 128 125 122 128 157 197 198 163 159 326 338 357 32 19 270 261 239 211 214 181 142 159 218 216 198 162 150 166 167 157 158 170 171 172 180 183 181 190 204 208 211 222 219
296 310 312 302 259 228 216 212 219 214 200 215 234 233 216 142 121 115 129 131 111 121 134 131 130 143 150 153 164 177 171 150 146 144 138 134 135 140 144 146 145 144 144 144 143 138 140 160 183 199 146 140 164 273 337 23 89 248 264 273 253 202 193 173 152 150 173 181 176 167 161 164 166 165 174 183 187 199 203 187 174 179 196 195 200 217 193
285 298 302 303 286 237 216 209 213 213 199 201 219 230 240 237 199 154 150 129 98 115 131 125 121 146 152 145 150 163 180 183 173 160 146 141 142 140 141 147 148 142 136 138 142 142 152 174 172 164 169 167 151 137 122 137 219 257 255 186 153 151 160 169 163 155 168 173 173 183 190 181 179 193 212 221 231 233 212 188 177 174 159 133 133 156 165
271 284 291 293 292 255 219 208 208 208 202 200 206 210 203 211 224 216 183 131 108 115 114 105 115 143 150 147 155 166 193 200 182 171 162 151 140 144 153 156 154 155 146 133 129 133 151 164 153 157 175 185 165 136 145 144 249 279 229 172 171 198 206 192 182 171 175 178 180 205 219 206 210 240 249 234 224 219 206 192 189 196 194 153 146 157 166
263 270 278 283 289 281 233 212 205 203 203 199 197 195 184 170 200 208 187 154 134 132 122 109 112 127 140 173 182 186 191 185 174 170 172 171 159 153 158 162 164 167 152 135 130 135 168 181 169 160 177 190 175 119 120 136 188 237 228 226 269 290 240 200 192 185 186 188 185 194 210 211 218 235 229 197 188 196 204 210 217 226 236 213 174 170 170
260 258 266 276 283 291 262 220 204 203 205 204 203 203 197 190 209 201 181 167 158 150 139 122 114 126 204 190 177 174 171 167 169 172 173 176 168 151 141 142 153 157 152 155 163 164 176 184 179 170 180 186 172 119 120 205 227 243 252 261 280 283 220 197 193 187 189 192 191 197 213 213 203 194 179 173 180 197 223 234 230 217 220 226 188 167 159
258 247 256 270 275 286 281 231 206 203 207 207 208 210 209 211 222 209 182 178 171 163 156 134 106 105 216 130 156 176 175 166 165 173 173 168 169 158 141 134 146 154 158 186 198 186 191 193 177 162 178 187 171 130 258 239 241 253 261 265 275 272 223 197 188 186 191 197 206 215 218 199 183 179 179 190 210 227 233 230 219 206 211 213 176 162 159
256 245 252 265 269 278 282 244 210 205 207 210 212 214 218 223 227 232 208 183 172 172 185 172 132 123 138 32 334 202 192 181 176 182 179 162 161 163 155 145 152 169 182 188 184 187 203 189 167 166 197 195 166 205 239 242 245 254 263 271 280 275 235 202 191 189 195 204 214 215 205 192 191 197 204 222 233 230 223 211 201 207 219 204 171 166 171
254 249 251 259 264 272 278 250 213 202 201 208 211 210 218 226 227 236 231 194 182 189 185 169 149 153 157 156 264 198 187 186 184 180 173 164 161 164 158 147 153 203 194 183 174 198 199 186 178 191 242 166 195 226 233 236 244 254 262 267 267 252 220 201 191 187 195 209 214 205 196 197 210 216 219 232 239 238 237 222 197 194 201 188 172 170 175
251 247 244 250 259 267 266 241 213 198 192 200 206 207 220 228 223 235 238 215 211 222 196 169 195 192 176 190 230 184 179 184 180 166 166 169 165 152 143 145 161 190 176 178 273 224 195 184 179 184 220 223 234 243 244 247 254 259 261 261 247 221 201 193 190 189 188 191 193 192 191 199 219 229 231 237 244 244 240 230 215 201 188 180 176 175 177
244 239 231 233 243 247 241 223 205 193 189 191 191 197 216 214 203 222 227 211 216 227 215 204 223 208 190 190 197 183 183 183 167 156 170 171 155 117 110 168 173 165 173 272 255 217 194 174 168 195 243 248 250 255 258 259 258 256 254 252 243 229 211 195 190 189 182 176 180 188 192 197 219 239 243 241 241 242 238 231 225 215 196 185 183 183 185
230 222 217 215 211 199 177 172 182 189 195 195 188 193 203 190 180 203 204 190 202 213 204 210 227 214 197 182 184 192 193 177 149 146 179 174 167 169 202 181 167 141 85 300 234 192 182 338 302 234 269 258 252 259 265 265 261 259 258 255 250 241 228 213 206 205 204 203 204 205 205 212 229 246 256 254 254 264 259 231 214 205 195 189 186 185 185
215 209 210 214 201 176 154 155 166 178 188 189 188 200 202 187 190 195 173 165 212 213 195 203 223 217 210 210 203 194 195 188 175 171 175 174 174 158 131 148 170 145 118 283 219 176 157 325 275 249 266 247 247 259 267 266 268 272 268 256 246 238 227 220 219 218 217 222 222 212 204 205 214 226 238 244 257 277 263 215 195 189 187 184 181 180 179
208 204 206 208 196 174 163 164 165 168 179 182 182 203 210 198 212 209 167 148 245 226 200 195 196 200 207 213 210 199 201 203 192 175 162 164 160 136 123 155 160 123 166 252 215 151 111 48 253 247 249 247 255 266 266 261 268 275 265 231 219 216 213 213 212 201 195 202 207 202 196 200 212 228 239 235 235 249 223 193 183 179 176 173 171 172 175
208 207 207 206 194 176 170 172 169 166 173 182 187 236 233 208 211 210 194 199 221 210 197 196 191 189 202 208 208 206 206 202 191 175 153 161 166 153 134 100 93 107 232 227 172 102 69 246 241 253 248 249 262 275 273 269 272 264 237 212 206 206 207 207 203 195 191 195 202 208 213 221 231 246 250 235 215 199 186 180 175 172 170 170 170 170 172
212 209 207 208 199 185 176 181 183 178 177 174 173 191 232 224 201 191 206 214 209 194 189 191 190 189 197 200 199 201 206 203 197 175 117 146 163 147 83 61 105 186 216 179 108 86 189 205 222 246 241 239 255 269 274 285 284 256 223 208 203 205 209 211 213 213 212 213 218 224 226 226 236 248 241 221 203 187 177 174 172 170 171 170 165 159 162
224 222 218 216 204 186 170 177 182 181 195 222 188 181 196 202 196 194 190 182 181 186 190 187 183 183 189 188 184 186 195 194 186 156 121 142 140 100 81 196 209 198 156 102 84 214 220 222 239 245 244 250 262 267 275 282 267 230 207 199 200 205 212 218 220 222 221 223 228 231 228 229 239 240 223 207 198 188 176 169 168 169 169 166 161 159 166
236 232 227 226 200 179 169 178 186 187 204 219 196 184 186 187 185 187 178 170 171 179 191 194 190 186 182 178 176 180 181 172 168 170 162 137 104 100 201 210 205 116 97 101 254 248 253 256 242 237 244 256 263 268 280 276 237 208 197 195 199 208 217 220 218 218 222 229 238 240 234 230 228 220 204 194 192 190 182 173 172 175 176 176 176 175 176
236 226 217 256 220 185 173 176 190 193 203 206 189 178 173 175 181 182 176 176 180 185 190 196 197 190 178 169 170 177 167 155 160 174 147 121 127 224 191 153 115 85 99 213 238 235 243 250 240 235 245 258 264 272 285 272 224 206 203 204 206 211 216 215 213 217 225 230 238 243 235 225 222 220 208 192 184 184 185 183 183 185 187 185 179 173 172
224 213 198 256 268 227 204 210 218 218 216 197 185 181 178 180 189 192 189 188 193 195 196 199 201 198 189 178 173 174 164 149 157 184 155 129 142 252 126 118 173 186 164 200 228 232 236 245 246 245 250 259 262 269 278 263 221 207 207 210 210 209 210 209 209 215 221 224 233 243 233 221 221 220 207 190 182 182 185 185 186 188 189 185 178 176 184
209 196 189 223 273 247 231 265 300 269 227 195 180 181 184 186 195 200 200 198 202 207 207 202 196 194 194 187 174 165 158 148 159 194 178 135 120 100 87 106 251 222 189 204 219 222 235 246 249 253 262 268 266 267 270 253 220 208 206 208 206 203 201 202 208 215 221 229 237 236 224 222 225 215 198 187 184 186 187 188 189 191 192 193 195 205 229
206 188 196 227 266 262 263 291 323 314 242 203 185 183 188 193 201 205 205 207 214 223 222 212 195 185 193 184 161 138 172 175 171 189 181 149 150 170 162 176 213 230 234 220 212 228 245 252 256 260 267 270 268 269 269 249 223 211 207 204 199 196 198 206 217 227 233 236 234 226 220 222 217 203 192 189 190 190 190 193 196 198 203 213 220 231 255
226 213 214 220 233 269 278 285 304 306 259 212 188 185 192 202 207 206 205 212 221 228 230 222 210 201 180 149 125 122 225 201 165 143 179 187 179 175 185 198 210 218 223 223 228 239 251 259 264 267 269 269 269 271 263 236 215 207 203 198 196 200 210 223 236 241 236 230 226 224 219 211 202 197 198 203 203 197 193 197 203 207 213 216 220 240 276
233 231 229 224 224 238 267 283 285 290 293 282 211 186 195 205 209 209 215 227 232 230 215 198 192 173 122 143 180 187 178 167 151 155 199 207 178 158 187 216 221 213 218 227 233 240 252 263 269 273 275 274 268 258 236 212 201 198 197 198 204 213 223 232 239 235 228 227 230 223 209 200 201 207 211 208 202 197 194 195 199 203 206 210 228 267 279
225 232 238 232 230 235 246 259 268 276 282 290 301 315 193 187 205 221 233 239 241 236 220 203 184 146 146 191 186 149 131 148 173 190 202 212 200 177 188 210 219 223 231 240 242 243 249 258 265 274 282 274 251 224 204 195 193 194 197 204 212 218 224 232 234 226 224 229 226 211 200 200 208 213 206 196 192 192 188 185 187 193 206 230 252 261 247